Time,TemperatureF,DewpointF,PressureIn,WindDirection,WindDirectionDegrees,WindSpeedMPH,WindSpeedGustMPH,Humidity,HourlyPrecipIn,Conditions,Clouds,dailyrainin,SoftwareType,DateUTC
2013-06-28 00:43:00,77.0,74.0,-100.00,North,-999,-999.0,-999.0,88,-99.99,,,-99.99,,2013-06-28 05:43:00,
2013-06-28 00:53:00,77.0,74.0,-100.00,North,-999,-999.0,-999.0,88,-99.99,,,-99.99,,2013-06-28 05:53:00,
2013-06-28 01:42:00,77.0,74.0,-100.00,North,-999,-999.0,-999.0,88,-99.99,,,-99.99,,2013-06-28 06:42:00,
2013-06-28 01:52:00,77.0,74.0,-100.00,North,-999,-999.0,-999.0,88,-99.99,,,-99.99,,2013-06-28 06:52:00,
2013-06-28 02:33:00,75.0,74.0,-100.00,North,-999,-999.0,-999.0,94,-99.99,,,-99.99,,2013-06-28 07:33:00,
2013-06-28 02:43:00,75.0,74.0,-100.00,North,-999,-999.0,-999.0,94,-99.99,,,-99.99,,2013-06-28 07:43:00,
2013-06-28 02:52:00,75.0,74.0,-100.00,North,-999,-999.0,-999.0,94,-99.99,,,-99.99,,2013-06-28 07:52:00,
2013-06-28 03:33:00,74.0,73.0,-100.00,North,-999,-999.0,-999.0,98,-99.99,,,-99.99,,2013-06-28 08:33:00,
2013-06-28 03:43:00,74.0,73.0,-100.00,North,-999,-999.0,-999.0,98,-99.99,,,-99.99,,2013-06-28 08:43:00,
2013-06-28 03:52:00,74.0,73.0,-100.00,North,-999,-999.0,-999.0,98,-99.99,,,-99.99,,2013-06-28 08:52:00,
2013-06-28 04:33:00,74.0,74.0,-100.00,North,-999,-999.0,-999.0,97,-99.99,,,-99.99,,2013-06-28 09:33:00,
2013-06-28 04:42:00,74.0,74.0,-100.00,North,-999,-999.0,-999.0,97,-99.99,,,-99.99,,2013-06-28 09:42:00,
2013-06-28 04:52:00,74.0,74.0,-100.00,North,-999,-999.0,-999.0,97,-99.99,,,-99.99,,2013-06-28 09:52:00,
2013-06-28 05:42:00,73.0,-99.9,-100.00,North,-999,-999.0,-999.0,100,-99.99,,,-99.99,,2013-06-28 10:42:00,
2013-06-28 05:52:00,73.0,-99.9,-100.00,North,-999,-999.0,-999.0,100,-99.99,,,-99.99,,2013-06-28 10:52:00,
2013-06-28 06:43:00,74.0,-99.9,-100.00,North,-999,-999.0,-999.0,100,-99.99,,,-99.99,,2013-06-28 11:43:00,
2013-06-28 06:53:00,74.0,-99.9,-100.00,North,-999,-999.0,-999.0,100,-99.99,,,-99.99,,2013-06-28 11:53:00,
2013-06-28 07:34:00,77.0,75.0,-100.00,North,-999,-999.0,-999.0,94,-99.99,,,-99.99,,2013-06-28 12:34:00,
2013-06-28 07:43:00,77.0,75.0,-100.00,North,-999,-999.0,-999.0,94,-99.99,,,-99.99,,2013-06-28 12:43:00,
2013-06-28 07:52:00,77.0,75.0,-100.00,North,-999,-999.0,-999.0,94,-99.99,,,-99.99,,2013-06-28 12:52:00,
2013-06-28 08:43:00,81.0,75.0,-100.00,North,-999,-999.0,-999.0,83,-99.99,,,-99.99,,2013-06-28 13:43:00,
2013-06-28 08:53:00,81.0,75.0,-100.00,North,-999,-999.0,-999.0,83,-99.99,,,-99.99,,2013-06-28 13:53:00,
2013-06-28 09:33:00,82.0,76.0,-100.00,North,-999,-999.0,-999.0,81,-99.99,,,-99.99,,2013-06-28 14:33:00,
2013-06-28 09:44:00,82.0,76.0,-100.00,North,-999,-999.0,-999.0,81,-99.99,,,-99.99,,2013-06-28 14:44:00,
2013-06-28 09:53:00,82.0,76.0,-100.00,North,-999,-999.0,-999.0,81,-99.99,,,-99.99,,2013-06-28 14:53:00,
2013-06-28 10:34:00,85.0,72.0,-100.00,North,-999,-999.0,-999.0,64,-99.99,,,-99.99,,2013-06-28 15:34:00,
2013-06-28 10:43:00,85.0,72.0,-100.00,North,-999,-999.0,-999.0,64,-99.99,,,-99.99,,2013-06-28 15:43:00,
2013-06-28 10:52:00,85.0,72.0,-100.00,North,-999,-999.0,-999.0,64,-99.99,,,-99.99,,2013-06-28 15:52:00,
2013-06-28 11:33:00,84.0,70.0,-100.00,North,-999,-999.0,-999.0,62,-99.99,,,-99.99,,2013-06-28 16:33:00,
2013-06-28 11:44:00,84.0,70.0,-100.00,North,-999,-999.0,-999.0,62,-99.99,,,-99.99,,2013-06-28 16:44:00,
2013-06-28 11:53:00,84.0,70.0,-100.00,North,-999,-999.0,-999.0,62,-99.99,,,-99.99,,2013-06-28 16:53:00,
2013-06-28 12:44:00,84.0,67.0,-100.00,North,-999,-999.0,-999.0,55,-99.99,,,-99.99,,2013-06-28 17:44:00,
2013-06-28 12:52:00,84.0,67.0,-100.00,North,-999,-999.0,-999.0,55,-99.99,,,-99.99,,2013-06-28 17:52:00,
2013-06-28 13:43:00,86.0,68.0,-100.00,North,-999,-999.0,-999.0,53,-99.99,,,-99.99,,2013-06-28 18:43:00,
2013-06-28 13:52:00,86.0,68.0,-100.00,North,-999,-999.0,-999.0,53,-99.99,,,-99.99,,2013-06-28 18:52:00,
2013-06-28 14:33:00,86.0,68.0,-100.00,North,-999,-999.0,-999.0,54,-99.99,,,-99.99,,2013-06-28 19:33:00,
2013-06-28 14:43:00,86.0,68.0,-100.00,North,-999,-999.0,-999.0,54,-99.99,,,-99.99,,2013-06-28 19:43:00,
2013-06-28 14:53:00,86.0,68.0,-100.00,North,-999,-999.0,-999.0,54,-99.99,,,-99.99,,2013-06-28 19:53:00,
2013-06-28 15:33:00,87.0,69.0,-100.00,North,-999,-999.0,-999.0,55,-99.99,,,-99.99,,2013-06-28 20:33:00,
2013-06-28 15:43:00,87.0,69.0,-100.00,North,-999,-999.0,-999.0,55,-99.99,,,-99.99,,2013-06-28 20:43:00,
2013-06-28 15:52:00,87.0,69.0,-100.00,North,-999,-999.0,-999.0,55,-99.99,,,-99.99,,2013-06-28 20:52:00,
2013-06-28 16:34:00,86.0,69.0,-100.00,North,-999,-999.0,-999.0,57,-99.99,,,-99.99,,2013-06-28 21:34:00,
2013-06-28 16:43:00,86.0,69.0,-100.00,North,-999,-999.0,-999.0,57,-99.99,,,-99.99,,2013-06-28 21:43:00,
2013-06-28 16:53:00,86.0,69.0,-100.00,North,-999,-999.0,-999.0,57,-99.99,,,-99.99,,2013-06-28 21:53:00,
2013-06-28 17:34:00,88.0,71.0,-100.00,North,-999,-999.0,-999.0,57,-99.99,,,-99.99,,2013-06-28 22:34:00,
2013-06-28 17:43:00,88.0,71.0,-100.00,North,-999,-999.0,-999.0,57,-99.99,,,-99.99,,2013-06-28 22:43:00,
2013-06-28 17:52:00,88.0,71.0,-100.00,North,-999,-999.0,-999.0,57,-99.99,,,-99.99,,2013-06-28 22:52:00,
2013-06-28 18:34:00,86.0,71.0,-100.00,North,-999,-999.0,-999.0,59,-99.99,,,-99.99,,2013-06-28 23:34:00,
2013-06-28 18:43:00,86.0,71.0,-100.00,North,-999,-999.0,-999.0,59,-99.99,,,-99.99,,2013-06-28 23:43:00,
2013-06-28 18:53:00,86.0,71.0,-100.00,North,-999,-999.0,-999.0,59,-99.99,,,-99.99,,2013-06-28 23:53:00,
2013-06-28 19:33:00,84.0,71.0,-100.00,North,-999,-999.0,-999.0,65,-99.99,,,-99.99,,2013-06-29 00:33:00,
2013-06-28 19:42:00,84.0,71.0,-100.00,North,-999,-999.0,-999.0,65,-99.99,,,-99.99,,2013-06-29 00:42:00,
2013-06-28 19:52:00,84.0,71.0,-100.00,North,-999,-999.0,-999.0,65,-99.99,,,-99.99,,2013-06-29 00:52:00,